Weather History for New Bedford, MA

Change the Weather History Date:

Wednesday, October 6, 2010

  Actual Average Record
Temperature  
Mean Temperature 58 °F -  
Max Temperature 63 °F 66 °F 85 °F (1959)
Min Temperature 51 °F 50 °F 30 °F (1996)
Degree Days  
Heating Degree Days 8    
Growing Degree Days 8 (Base 50)    
Moisture  
Dew Point 57 °F    
Average Humidity 92    
Maximum Humidity 100    
Minimum Humidity 88    
Precipitation  
Precipitation 1.16 in - - ()
Sea Level Pressure  
Sea Level Pressure 29.81 in    
Wind  
Wind Speed 6 mph (WNW)    
Max Wind Speed 17 mph    
Max Gust Speed 18 mph    
Visibility 6 miles    
Events Rain    
Averages and records for this station are not official NWS values.
T = Trace of Precipitation, MM = Missing Value Source: NWS Daily Summary

Daily Weather History Graph

Daily Weather History Graph

Search for Another Location

Airport:

Trip Planner

Search our weather history database for the weather conditions in past years. The results will help you decide how hot, cold, wet, or windy it might be!

Date:

Astronomy

Oct. 06, 2010 Rise Set
Actual Time 6:45 AM EDT 6:17 PM EDT
Civil Twilight 6:18 AM EDT 6:44 PM EDT
Nautical Twilight 5:46 AM EDT 7:17 PM EDT
Astronomical Twilight 5:13 AM EDT 7:49 PM EDT
Moon 5:18 AM EDT (10/6) 5:18 PM EDT (10/6)
Length of Visible Light 12h 26m
Length of Day
11h 31m
Waning Crescent, 2% of the Moon is Illuminated
Oct 6
Waning Crescent
Oct 7
New
Oct 14
First Quarter
Oct 22
Full
Oct 30
Last Quarter

Hourly Weather History & Observations

Time (EDT) Temp. Dew Point Humidity Pressure Visibility Wind Dir Wind Speed Gust Speed Precip Events Conditions
12:53 AM 62.1 °F 60.1 °F 93% 30.05 in 4.0 mi Calm Calm - 0.00 in Rain Light Rain
1:49 AM 62.6 °F 60.8 °F 94% 30.03 in 1.8 mi NE 4.6 mph - 0.00 in   Overcast
1:53 AM 62.1 °F 60.1 °F 93% 30.03 in 1.0 mi ENE 6.9 mph - 0.00 in   Overcast
2:21 AM 60.8 °F 60.8 °F 100% 30.04 in 3.0 mi East 3.5 mph - 0.00 in Rain Light Rain
2:53 AM 61.0 °F 60.1 °F 97% 30.02 in 5.0 mi ENE 4.6 mph - 0.02 in Rain Light Rain
3:53 AM 61.0 °F 59.0 °F 93% 29.99 in 6.0 mi NE 5.8 mph - 0.03 in   Overcast
4:53 AM 61.0 °F 59.0 °F 93% 29.99 in 10.0 mi NE 8.1 mph - N/A   Overcast
5:53 AM 61.0 °F 59.0 °F 93% 29.96 in 7.0 mi ENE 13.8 mph - 0.05 in   Overcast
6:53 AM 62.1 °F 59.0 °F 90% 30.00 in 9.0 mi ENE 3.5 mph - 0.05 in Rain Rain
7:53 AM 62.1 °F 60.1 °F 93% 29.97 in 9.0 mi NE 3.5 mph - 0.08 in Rain Rain
8:53 AM 63.0 °F 60.1 °F 90% 29.97 in 8.0 mi NE 4.6 mph - 0.11 in Rain Rain
9:53 AM 62.1 °F 60.1 °F 93% 29.94 in 6.0 mi NE 9.2 mph - 0.11 in Rain Rain
10:53 AM 62.1 °F 60.1 °F 93% 29.87 in 7.0 mi NE 17.3 mph - 0.12 in Rain Light Rain
11:53 AM 62.1 °F 59.0 °F 90% 29.84 in 8.0 mi NE 11.5 mph - 0.08 in Rain Light Rain
12:53 PM 61.0 °F 57.9 °F 90% 29.79 in 10.0 mi Variable 6.9 mph 18.4 mph 0.02 in Rain Light Rain
1:14 PM 60.8 °F 57.2 °F 88% 29.78 in 1.5 mi WSW 5.8 mph - 0.11 in Rain Light Rain
1:53 PM 61.0 °F 59.0 °F 93% 29.77 in 2.0 mi NW 3.5 mph - 0.44 in Rain Rain
2:08 PM 62.6 °F 59.0 °F 88% 29.76 in 4.0 mi WNW 4.6 mph - 0.01 in Rain Light Rain
2:22 PM 62.6 °F 59.0 °F 88% 29.75 in 8.0 mi WNW 5.8 mph - 0.01 in Rain Light Rain
2:43 PM 62.6 °F 59.0 °F 88% 29.72 in 3.0 mi WNW 6.9 mph - 0.02 in Rain Light Rain
2:46 PM 60.8 °F 59.0 °F 94% 29.73 in 3.0 mi WNW 5.8 mph - 0.02 in Rain Light Rain
2:53 PM 62.1 °F 59.0 °F 90% 29.73 in 5.0 mi WNW 8.1 mph - 0.02 in Rain Light Rain
3:08 PM 60.8 °F 59.0 °F 94% 29.73 in 10.0 mi WNW 5.8 mph - 0.00 in   Overcast
3:53 PM 62.1 °F 59.0 °F 90% 29.71 in 4.0 mi West 8.1 mph - 0.01 in Rain Light Rain
4:33 PM 60.8 °F 57.2 °F 88% 29.70 in 3.0 mi West 11.5 mph - 0.00 in   Overcast
4:53 PM 59.0 °F 57.0 °F 93% 29.70 in 3.0 mi WSW 9.2 mph 18.4 mph 0.00 in   Overcast
5:53 PM 59.0 °F 57.0 °F 93% 29.69 in 4.0 mi WSW 9.2 mph - 0.01 in Rain Light Rain
6:09 PM 57.2 °F 55.4 °F 94% 29.70 in 2.5 mi WSW 11.5 mph - 0.00 in Rain Light Rain
6:20 PM 57.2 °F 55.4 °F 94% 29.70 in 4.0 mi WSW 11.5 mph - 0.00 in Rain Light Rain
6:53 PM 57.0 °F 55.0 °F 93% 29.70 in 5.0 mi WSW 6.9 mph - 0.00 in   Overcast
7:53 PM 57.0 °F 55.0 °F 93% 29.70 in 10.0 mi WSW 5.8 mph - N/A   Overcast
8:46 PM 57.2 °F 53.6 °F 88% 29.69 in 10.0 mi SW 10.4 mph - 0.00 in   Overcast
8:53 PM 55.9 °F 54.0 °F 93% 29.69 in 10.0 mi SW 8.1 mph - 0.00 in   Overcast
9:53 PM 54.0 °F 51.1 °F 90% 29.68 in 10.0 mi WSW 4.6 mph - N/A   Overcast
10:00 PM 53.6 °F 51.8 °F 94% 29.68 in 10.0 mi WSW 3.5 mph - N/A   Clear
10:53 PM 52.0 °F 50.0 °F 93% 29.66 in 9.0 mi SW 3.5 mph - N/A   Clear
11:53 PM 51.1 °F 48.9 °F 92% 29.64 in 5.0 mi SSW 3.5 mph - 0.01 in   Clear